| time (UTC) | temp F | wind direction | speed MPH | gust MPH | rain 1hr in | rain 24hr in | rain mn in | humidity % | barometer mb |
| 20260505021858 | 73 | 176 | 2.0 | 5.0 | 0.00 | 0.00 | 0.00 | 62 | 1010.6 |
| 20260505021759 | 73 | 181 | 4.0 | 4.0 | 0.00 | 0.00 | 0.00 | 63 | 1010.6 |
| 20260505021656 | 73 | 216 | 1.0 | 4.0 | 0.00 | 0.00 | 0.00 | 62 | 1010.6 |
| 20260505021557 | 73 | 216 | 2.0 | 4.0 | 0.00 | 0.00 | 0.00 | 63 | 1010.7 |
| 20260505021458 | 73 | 245 | 0.0 | 4.0 | 0.00 | 0.00 | 0.00 | 63 | 1010.6 |
| 20260505021256 | 73 | 245 | 0.0 | 4.0 | 0.00 | 0.00 | 0.00 | 63 | 1010.6 |
| 20260505021157 | 73 | 245 | 2.0 | 4.0 | 0.00 | 0.00 | 0.00 | 63 | 1010.6 |
| 20260505021002 | 73 | 258 | 0.0 | 4.0 | 0.00 | 0.00 | 0.00 | 63 | 1010.5 |
| 20260505020858 | 73 | 258 | 1.0 | 4.0 | 0.00 | 0.00 | 0.00 | 63 | 1010.5 |
| 20260505020757 | 73 | 163 | 3.0 | 4.0 | 0.00 | 0.00 | 0.00 | 63 | 1010.5 |
| 20260505020658 | 73 | 221 | 0.0 | 4.0 | 0.00 | 0.00 | 0.00 | 63 | 1010.5 |
| 20260505020457 | 73 | 189 | 2.0 | 2.0 | 0.00 | 0.00 | 0.00 | 63 | 1010.6 |
| 20260505020359 | 73 | 189 | 2.0 | 2.0 | 0.00 | 0.00 | 0.00 | 63 | 1010.6 |
| 20260505020258 | 73 | 189 | 0.0 | 2.0 | 0.00 | 0.00 | 0.00 | 63 | 1010.6 |
| 20260505015856 | 73 | 189 | 0.0 | 2.0 | 0.00 | 0.00 | 0.00 | 63 | 1010.6 |
| 20260505015759 | 73 | 189 | 1.0 | 2.0 | 0.00 | 0.00 | 0.00 | 63 | 1010.6 |
| 20260505015457 | 74 | 189 | 1.0 | 3.0 | 0.00 | 0.00 | 0.00 | 64 | 1010.5 |
| 20260505015358 | 74 | 189 | 0.0 | 3.0 | 0.00 | 0.00 | 0.00 | 64 | 1010.5 |
| 20260505015259 | 74 | 189 | 0.0 | 3.0 | 0.00 | 0.00 | 0.00 | 64 | 1010.5 |
| 20260505015157 | 74 | 189 | 0.0 | 3.0 | 0.00 | 0.00 | 0.00 | 64 | 1010.5 |
| 20260505015056 | 74 | 189 | 0.0 | 4.0 | 0.00 | 0.00 | 0.00 | 64 | 1010.5 |
| 20260505015007 | 74 | 189 | 0.0 | 4.0 | 0.00 | 0.00 | 0.00 | 64 | 1010.5 |
| 20260505014858 | 74 | 189 | 0.0 | 4.0 | 0.00 | 0.00 | 0.00 | 64 | 1010.4 |
| 20260505014658 | 74 | 189 | 1.0 | 4.0 | 0.00 | 0.00 | 0.00 | 64 | 1010.4 |
| 20260505014559 | 74 | 189 | 1.0 | 4.0 | 0.00 | 0.00 | 0.00 | 64 | 1010.4 |
| 20260505014256 | 74 | 189 | 0.0 | 4.0 | 0.00 | 0.00 | 0.00 | 64 | 1010.4 |
| 20260505014158 | 74 | 195 | 0.0 | 4.0 | 0.00 | 0.00 | 0.00 | 64 | 1010.4 |
| 20260505014056 | 74 | 195 | 0.0 | 4.0 | 0.00 | 0.00 | 0.00 | 64 | 1010.4 |
| 20260505013959 | 74 | 195 | 0.0 | 4.0 | 0.00 | 0.00 | 0.00 | 65 | 1010.3 |
| 20260505013856 | 74 | 195 | 0.0 | 4.0 | 0.00 | 0.00 | 0.00 | 65 | 1010.3 |
| 20260505013759 | 74 | 195 | 1.0 | 4.0 | 0.00 | 0.00 | 0.00 | 65 | 1010.3 |
| 20260505013457 | 74 | 186 | 0.0 | 4.0 | 0.00 | 0.00 | 0.00 | 65 | 1010.3 |
| 20260505013357 | 74 | 186 | 0.0 | 4.0 | 0.00 | 0.00 | 0.00 | 65 | 1010.3 |
| 20260505013258 | 74 | 176 | 0.0 | 4.0 | 0.00 | 0.00 | 0.00 | 65 | 1010.3 |
| 20260505013158 | 74 | 179 | 0.0 | 3.0 | 0.00 | 0.00 | 0.00 | 65 | 1010.4 |
| 20260505013056 | 74 | 179 | 1.0 | 4.0 | 0.00 | 0.00 | 0.00 | 65 | 1010.4 |
| 20260505013000 | 74 | 179 | 2.0 | 5.0 | 0.00 | 0.00 | 0.00 | 65 | 1010.4 |
| 20260505012757 | 74 | 179 | 0.0 | 5.0 | 0.00 | 0.00 | 0.00 | 65 | 1010.4 |
| 20260505012458 | 74 | 179 | 1.0 | 5.0 | 0.00 | 0.00 | 0.00 | 66 | 1010.3 |
| 20260505012357 | 74 | 178 | 1.0 | 5.0 | 0.00 | 0.00 | 0.00 | 66 | 1010.2 |
| 20260505012256 | 74 | 240 | 1.0 | 5.0 | 0.00 | 0.00 | 0.00 | 66 | 1010.2 |
| 20260505012158 | 74 | 164 | 2.0 | 5.0 | 0.00 | 0.00 | 0.00 | 66 | 1010.2 |
| 20260505012058 | 74 | 218 | 3.0 | 4.0 | 0.00 | 0.00 | 0.00 | 66 | 1010.2 |
| 20260505012001 | 74 | 208 | 1.0 | 3.0 | 0.00 | 0.00 | 0.00 | 66 | 1010.2 |
| 20260505011856 | 74 | 208 | 1.0 | 3.0 | 0.00 | 0.00 | 0.00 | 66 | 1010.2 |
| 20260505011757 | 74 | 208 | 2.0 | 3.0 | 0.00 | 0.00 | 0.00 | 66 | 1010.2 |
| 20260505011658 | 74 | 208 | 2.0 | 3.0 | 0.00 | 0.00 | 0.00 | 66 | 1010.3 |
| 20260505011556 | 74 | 208 | 1.0 | 3.0 | 0.00 | 0.00 | 0.00 | 66 | 1010.4 |
| 20260505011500 | 74 | 208 | 3.0 | 3.0 | 0.00 | 0.00 | 0.00 | 66 | 1010.4 |
| 20260505011357 | 74 | 208 | 1.0 | 4.0 | 0.00 | 0.00 | 0.00 | 66 | 1010.5 |
| 20260505011259 | 75 | 208 | 2.0 | 5.0 | 0.00 | 0.00 | 0.00 | 66 | 1010.4 |
| 20260505011056 | 75 | 208 | 1.0 | 5.0 | 0.00 | 0.00 | 0.00 | 66 | 1010.4 |
| 20260505011007 | 75 | 208 | 0.0 | 5.0 | 0.00 | 0.00 | 0.00 | 67 | 1010.4 |
| 20260505010857 | 75 | 208 | 1.0 | 5.0 | 0.00 | 0.00 | 0.00 | 67 | 1010.3 |
| 20260505010759 | 75 | 208 | 1.0 | 5.0 | 0.00 | 0.00 | 0.00 | 67 | 1010.3 |
| 20260505010657 | 75 | 208 | 1.0 | 5.0 | 0.00 | 0.00 | 0.00 | 67 | 1010.3 |
| 20260505010557 | 75 | 208 | 0.0 | 5.0 | 0.00 | 0.00 | 0.00 | 67 | 1010.3 |
| 20260505010356 | 75 | 210 | 1.0 | 4.0 | 0.00 | 0.00 | 0.00 | 67 | 1010.1 |
| 20260505010256 | 75 | 179 | 1.0 | 4.0 | 0.00 | 0.00 | 0.00 | 67 | 1010.2 |
| 20260505010157 | 75 | 179 | 0.0 | 7.0 | 0.00 | 0.00 | 0.00 | 67 | 1010.1 |
| 20260505010058 | 75 | 179 | 0.0 | 7.0 | 0.00 | 0.00 | 0.00 | 67 | 1010.1 |
| 20260505005856 | 75 | 180 | 1.0 | 7.0 | 0.00 | 0.00 | 0.00 | 67 | 1010.1 |
| 20260505005758 | 75 | 180 | 3.0 | 7.0 | 0.00 | 0.00 | 0.00 | 67 | 1010.1 |
| 20260505005559 | 75 | 180 | 0.0 | 7.0 | 0.00 | 0.00 | 0.00 | 67 | 1010.1 |
| 20260505005457 | 75 | 179 | 3.0 | 7.0 | 0.00 | 0.00 | 0.00 | 67 | 1010.1 |
| 20260505005357 | 75 | 167 | 7.0 | 7.0 | 0.00 | 0.00 | 0.00 | 67 | 1010.1 |
| 20260505005258 | 75 | 189 | 1.0 | 6.0 | 0.00 | 0.00 | 0.00 | 67 | 1010.1 |
| 20260505005159 | 75 | 189 | 1.0 | 6.0 | 0.00 | 0.00 | 0.00 | 67 | 1010.2 |
| 20260505005058 | 75 | 189 | 0.0 | 6.0 | 0.00 | 0.00 | 0.00 | 67 | 1010.2 |
| 20260505004959 | 75 | 189 | 0.0 | 7.0 | 0.00 | 0.00 | 0.00 | 67 | 1010.1 |
| 20260505004858 | 75 | 189 | 3.0 | 7.0 | 0.00 | 0.00 | 0.00 | 67 | 1010.1 |
| 20260505004656 | 76 | 189 | 0.0 | 7.0 | 0.00 | 0.00 | 0.00 | 67 | 1010.1 |
| 20260505004457 | 76 | 175 | 5.0 | 7.0 | 0.00 | 0.00 | 0.00 | 67 | 1010.1 |
| 20260505004359 | 76 | 201 | 3.0 | 7.0 | 0.00 | 0.00 | 0.00 | 67 | 1010.0 |
| 20260505004058 | 76 | 170 | 3.0 | 6.0 | 0.00 | 0.00 | 0.00 | 67 | 1010.0 |
| 20260505004007 | 76 | 178 | 2.0 | 6.0 | 0.00 | 0.00 | 0.00 | 67 | 1010.0 |
| 20260505003757 | 76 | 217 | 1.0 | 6.0 | 0.00 | 0.00 | 0.00 | 67 | 1010.1 |
| 20260505003656 | 76 | 165 | 2.0 | 6.0 | 0.00 | 0.00 | 0.00 | 67 | 1010.0 |
| 20260505003556 | 76 | 164 | 3.0 | 6.0 | 0.00 | 0.00 | 0.00 | 67 | 1010.0 |
| 20260505003459 | 76 | 176 | 0.0 | 6.0 | 0.00 | 0.00 | 0.00 | 67 | 1010.0 |
| 20260505003357 | 76 | 174 | 2.0 | 6.0 | 0.00 | 0.00 | 0.00 | 67 | 1010.0 |
| 20260505003258 | 76 | 240 | 0.0 | 6.0 | 0.00 | 0.00 | 0.00 | 67 | 1010.0 |
| 20260505003159 | 77 | 194 | 1.0 | 4.0 | 0.00 | 0.00 | 0.00 | 67 | 1010.0 |
| 20260505003058 | 77 | 197 | 1.0 | 4.0 | 0.00 | 0.00 | 0.00 | 67 | 1010.0 |
| 20260505002959 | 77 | 197 | 0.0 | 4.0 | 0.00 | 0.00 | 0.00 | 66 | 1010.0 |
| 20260505002856 | 77 | 197 | 0.0 | 4.0 | 0.00 | 0.00 | 0.00 | 66 | 1010.0 |
| 20260505002759 | 77 | 198 | 4.0 | 4.0 | 0.00 | 0.00 | 0.00 | 66 | 1010.0 |
| 20260505002656 | 77 | 142 | 2.0 | 4.0 | 0.00 | 0.00 | 0.00 | 66 | 1010.0 |
| 20260505002557 | 77 | 142 | 2.0 | 3.0 | 0.00 | 0.00 | 0.00 | 66 | 1009.9 |
| 20260505002457 | 77 | 142 | 0.0 | 6.0 | 0.00 | 0.00 | 0.00 | 66 | 1009.9 |
| 20260505002358 | 77 | 142 | 2.0 | 6.0 | 0.00 | 0.00 | 0.00 | 66 | 1009.9 |
| 20260505002258 | 77 | 141 | 1.0 | 6.0 | 0.00 | 0.00 | 0.00 | 66 | 1009.9 |
| 20260505002056 | 77 | 141 | 1.0 | 6.0 | 0.00 | 0.00 | 0.00 | 66 | 1009.8 |
| 20260505002008 | 77 | 141 | 0.0 | 6.0 | 0.00 | 0.00 | 0.00 | 66 | 1009.8 |
| 20260505001858 | 77 | 141 | 1.0 | 6.0 | 0.00 | 0.00 | 0.00 | 66 | 1009.8 |
| 20260505001756 | 77 | 141 | 1.0 | 6.0 | 0.00 | 0.00 | 0.00 | 66 | 1009.8 |
| 20260505001656 | 77 | 141 | 0.0 | 6.0 | 0.00 | 0.00 | 0.00 | 66 | 1009.8 |
| 20260505001559 | 77 | 139 | 3.0 | 6.0 | 0.00 | 0.00 | 0.00 | 66 | 1009.9 |
| 20260505001458 | 78 | 138 | 3.0 | 6.0 | 0.00 | 0.00 | 0.00 | 66 | 1009.9 |
| 20260505001357 | 78 | 227 | 1.0 | 6.0 | 0.00 | 0.00 | 0.00 | 66 | 1009.9 |
| 20260505001256 | 78 | 227 | 1.0 | 6.0 | 0.00 | 0.00 | 0.00 | 66 | 1009.9 |
| 20260505001157 | 78 | 174 | 1.0 | 6.0 | 0.00 | 0.00 | 0.00 | 66 | 1009.9 |
| 20260505001007 | 78 | 171 | 1.0 | 6.0 | 0.00 | 0.00 | 0.00 | 66 | 1009.9 |
| 20260505000856 | 78 | 187 | 1.0 | 6.0 | 0.00 | 0.00 | 0.00 | 66 | 1009.9 |
| 20260505000759 | 78 | 188 | 1.0 | 6.0 | 0.00 | 0.00 | 0.00 | 66 | 1009.9 |
| 20260505000658 | 78 | 188 | 0.0 | 6.0 | 0.00 | 0.00 | 0.00 | 66 | 1009.9 |
| 20260505000559 | 78 | 188 | 0.0 | 6.0 | 0.00 | 0.00 | 0.00 | 66 | 1010.0 |
| 20260505000458 | 78 | 188 | 0.0 | 6.0 | 0.00 | 0.00 | 0.00 | 66 | 1009.9 |
| 20260505000359 | 78 | 188 | 0.0 | 6.0 | 0.00 | 0.00 | 0.00 | 66 | 1009.9 |
| 20260505000258 | 78 | 188 | 3.0 | 6.0 | 0.00 | 0.00 | 0.00 | 66 | 1010.0 |
| 20260505000157 | 78 | 199 | 1.0 | 6.0 | 0.00 | 0.00 | 0.00 | 66 | 1009.9 |
| 20260505000056 | 78 | 201 | 1.0 | 6.0 | 0.00 | 0.00 | 0.00 | 66 | 1010.0 |
| 20260505000002 | 78 | 201 | 2.0 | 6.0 | 0.00 | 0.00 | 0.00 | 66 | 1009.9 |
| 20260504235858 | 78 | 185 | 0.0 | 6.0 | 0.00 | 0.00 | 0.00 | 66 | 1009.9 |
| 20260504235758 | 78 | 190 | 2.0 | 6.0 | 0.00 | 0.00 | 0.00 | 65 | 1010.0 |
| 20260504235656 | 78 | 169 | 5.0 | 5.0 | 0.00 | 0.00 | 0.00 | 65 | 1010.0 |
| 20260504235556 | 78 | 167 | 2.0 | 5.0 | 0.00 | 0.00 | 0.00 | 65 | 1010.0 |
| 20260504235458 | 78 | 167 | 1.0 | 5.0 | 0.00 | 0.00 | 0.00 | 65 | 1010.1 |
| 20260504235256 | 78 | 188 | 2.0 | 5.0 | 0.00 | 0.00 | 0.00 | 65 | 1010.1 |
| 20260504235157 | 78 | 188 | 3.0 | 5.0 | 0.00 | 0.00 | 0.00 | 66 | 1010.1 |
| 20260504235058 | 78 | 192 | 0.0 | 5.0 | 0.00 | 0.00 | 0.00 | 65 | 1010.1 |
| 20260504235002 | 78 | 192 | 2.0 | 5.0 | 0.00 | 0.00 | 0.00 | 65 | 1010.1 |
| 20260504234856 | 78 | 194 | 2.0 | 5.0 | 0.00 | 0.00 | 0.00 | 66 | 1010.1 |
| 20260504234757 | 78 | 197 | 2.0 | 5.0 | 0.00 | 0.00 | 0.00 | 66 | 1010.1 |
| 20260504234658 | 78 | 197 | 2.0 | 5.0 | 0.00 | 0.00 | 0.00 | 66 | 1010.1 |
| 20260504234458 | 78 | 207 | 0.0 | 5.0 | 0.00 | 0.00 | 0.00 | 66 | 1010.2 |
| 20260504234358 | 78 | 207 | 0.0 | 8.0 | 0.00 | 0.00 | 0.00 | 66 | 1010.1 |
| 20260504234257 | 78 | 207 | 4.0 | 8.0 | 0.00 | 0.00 | 0.00 | 66 | 1010.2 |
| 20260504234159 | 78 | 179 | 1.0 | 8.0 | 0.00 | 0.00 | 0.00 | 66 | 1010.2 |
| 20260504234058 | 78 | 173 | 1.0 | 8.0 | 0.00 | 0.00 | 0.00 | 66 | 1010.2 |
| 20260504233959 | 78 | 173 | 0.0 | 8.0 | 0.00 | 0.00 | 0.00 | 66 | 1010.2 |
| 20260504233858 | 78 | 173 | 0.0 | 8.0 | 0.00 | 0.00 | 0.00 | 66 | 1010.1 |
| 20260504233759 | 78 | 173 | 0.0 | 8.0 | 0.00 | 0.00 | 0.00 | 65 | 1010.2 |
| 20260504233658 | 78 | 174 | 0.0 | 8.0 | 0.00 | 0.00 | 0.00 | 65 | 1010.2 |
| 20260504233557 | 78 | 174 | 3.0 | 8.0 | 0.00 | 0.00 | 0.00 | 65 | 1010.2 |
| 20260504233458 | 78 | 172 | 4.0 | 7.0 | 0.00 | 0.00 | 0.00 | 65 | 1010.2 |
| 20260504233359 | 78 | 185 | 2.0 | 7.0 | 0.00 | 0.00 | 0.00 | 65 | 1010.2 |
| 20260504233256 | 78 | 185 | 0.0 | 7.0 | 0.00 | 0.00 | 0.00 | 65 | 1010.2 |
| 20260504233157 | 78 | 185 | 1.0 | 7.0 | 0.00 | 0.00 | 0.00 | 65 | 1010.2 |
| 20260504233056 | 78 | 185 | 1.0 | 7.0 | 0.00 | 0.00 | 0.00 | 65 | 1010.3 |
| 20260504232959 | 78 | 187 | 2.0 | 7.0 | 0.00 | 0.00 | 0.00 | 65 | 1010.4 |
| 20260504232858 | 78 | 178 | 1.0 | 6.0 | 0.00 | 0.00 | 0.00 | 65 | 1010.3 |
| 20260504232759 | 78 | 178 | 0.0 | 6.0 | 0.00 | 0.00 | 0.00 | 65 | 1010.4 |
| 20260504232557 | 78 | 213 | 2.0 | 6.0 | 0.00 | 0.00 | 0.00 | 65 | 1010.4 |
| 20260504232500 | 78 | 227 | 0.0 | 7.0 | 0.00 | 0.00 | 0.00 | 66 | 1010.3 |
| 20260504232358 | 78 | 227 | 1.0 | 7.0 | 0.00 | 0.00 | 0.00 | 66 | 1010.3 |
| 20260504232258 | 78 | 227 | 0.0 | 7.0 | 0.00 | 0.00 | 0.00 | 66 | 1010.3 |
| 20260504232158 | 78 | 227 | 2.0 | 7.0 | 0.00 | 0.00 | 0.00 | 65 | 1010.3 |
| 20260504232056 | 78 | 227 | 1.0 | 7.0 | 0.00 | 0.00 | 0.00 | 66 | 1010.3 |
| 20260504231958 | 78 | 227 | 0.0 | 7.0 | 0.00 | 0.00 | 0.00 | 66 | 1010.3 |
| 20260504231858 | 78 | 227 | 0.0 | 7.0 | 0.00 | 0.00 | 0.00 | 65 | 1010.4 |
| 20260504231758 | 78 | 219 | 1.0 | 7.0 | 0.00 | 0.00 | 0.00 | 65 | 1010.3 |
| 20260504231558 | 78 | 162 | 1.0 | 5.0 | 0.00 | 0.00 | 0.00 | 65 | 1010.4 |
| 20260504231458 | 78 | 173 | 1.0 | 5.0 | 0.00 | 0.00 | 0.00 | 65 | 1010.3 |
| 20260504231258 | 78 | 250 | 1.0 | 5.0 | 0.00 | 0.00 | 0.00 | 65 | 1010.5 |
| 20260504231158 | 78 | 212 | 1.0 | 5.0 | 0.00 | 0.00 | 0.00 | 66 | 1010.4 |
| 20260504231057 | 78 | 214 | 2.0 | 5.0 | 0.00 | 0.00 | 0.00 | 66 | 1010.5 |
| 20260504230758 | 78 | 250 | 1.0 | 6.0 | 0.00 | 0.00 | 0.00 | 66 | 1010.5 |
| 20260504230658 | 78 | 250 | 1.0 | 7.0 | 0.00 | 0.00 | 0.00 | 65 | 1010.5 |
| 20260504230358 | 78 | 176 | 2.0 | 7.0 | 0.00 | 0.00 | 0.00 | 65 | 1010.5 |
| 20260504230258 | 78 | 176 | 1.0 | 7.0 | 0.00 | 0.00 | 0.00 | 65 | 1010.6 |
| 20260504230158 | 78 | 173 | 2.0 | 7.0 | 0.00 | 0.00 | 0.00 | 65 | 1010.6 |
| 20260504230002 | 78 | 200 | 4.0 | 7.0 | 0.00 | 0.00 | 0.00 | 65 | 1010.6 |
| 20260504225858 | 78 | 183 | 3.0 | 7.0 | 0.00 | 0.00 | 0.00 | 65 | 1010.7 |
| 20260504225758 | 78 | 201 | 3.0 | 6.0 | 0.00 | 0.00 | 0.00 | 65 | 1010.7 |
| 20260504225459 | 78 | 258 | 4.0 | 5.0 | 0.00 | 0.00 | 0.00 | 65 | 1010.7 |
| 20260504225358 | 78 | 222 | 2.0 | 4.0 | 0.00 | 0.00 | 0.00 | 65 | 1010.6 |
| 20260504225258 | 78 | 223 | 1.0 | 4.0 | 0.00 | 0.00 | 0.00 | 65 | 1010.6 |
| 20260504225158 | 78 | 223 | 0.0 | 4.0 | 0.00 | 0.00 | 0.00 | 65 | 1010.6 |
| 20260504225056 | 78 | 227 | 2.0 | 4.0 | 0.00 | 0.00 | 0.00 | 65 | 1010.6 |
| 20260504224959 | 78 | 227 | 0.0 | 4.0 | 0.00 | 0.00 | 0.00 | 65 | 1010.6 |
| 20260504224858 | 78 | 227 | 1.0 | 4.0 | 0.00 | 0.00 | 0.00 | 65 | 1010.6 |
| 20260504224758 | 78 | 227 | 2.0 | 4.0 | 0.00 | 0.00 | 0.00 | 65 | 1010.6 |
| 20260504224658 | 78 | 227 | 2.0 | 4.0 | 0.00 | 0.00 | 0.00 | 65 | 1010.6 |
| 20260504224500 | 79 | 227 | 2.0 | 5.0 | 0.00 | 0.00 | 0.00 | 65 | 1010.6 |
| 20260504224358 | 79 | 227 | 2.0 | 5.0 | 0.00 | 0.00 | 0.00 | 65 | 1010.6 |
| 20260504224258 | 79 | 227 | 2.0 | 5.0 | 0.00 | 0.00 | 0.00 | 65 | 1010.6 |
| 20260504224158 | 79 | 228 | 1.0 | 5.0 | 0.00 | 0.00 | 0.00 | 65 | 1010.6 |
| 20260504224058 | 79 | 228 | 1.0 | 5.0 | 0.00 | 0.00 | 0.00 | 65 | 1010.7 |
| 20260504223857 | 79 | 230 | 0.0 | 6.0 | 0.00 | 0.00 | 0.00 | 65 | 1010.7 |
| 20260504223758 | 79 | 230 | 0.0 | 6.0 | 0.00 | 0.00 | 0.00 | 65 | 1010.8 |
| 20260504223658 | 79 | 187 | 3.0 | 6.0 | 0.00 | 0.00 | 0.00 | 65 | 1010.7 |
| 20260504223558 | 79 | 183 | 1.0 | 6.0 | 0.00 | 0.00 | 0.00 | 65 | 1010.7 |
| 20260504223458 | 79 | 183 | 0.0 | 6.0 | 0.00 | 0.00 | 0.00 | 64 | 1010.7 |
| 20260504223358 | 79 | 183 | 0.0 | 6.0 | 0.00 | 0.00 | 0.00 | 64 | 1010.7 |
| 20260504223256 | 79 | 183 | 1.0 | 6.0 | 0.00 | 0.00 | 0.00 | 64 | 1010.7 |
| 20260504222959 | 79 | 201 | 1.0 | 6.0 | 0.00 | 0.00 | 0.00 | 64 | 1010.9 |
| 20260504222858 | 79 | 171 | 3.0 | 6.0 | 0.00 | 0.00 | 0.00 | 64 | 1010.9 |
| 20260504222757 | 79 | 166 | 2.0 | 8.0 | 0.00 | 0.00 | 0.00 | 64 | 1010.8 |
| 20260504222658 | 79 | 155 | 2.0 | 8.0 | 0.00 | 0.00 | 0.00 | 64 | 1010.7 |
| 20260504222559 | 79 | 206 | 1.0 | 8.0 | 0.00 | 0.00 | 0.00 | 65 | 1010.7 |
| 20260504222458 | 79 | 206 | 1.0 | 8.0 | 0.00 | 0.00 | 0.00 | 64 | 1010.7 |
| 20260504222359 | 79 | 206 | 0.0 | 8.0 | 0.00 | 0.00 | 0.00 | 64 | 1010.8 |
| 20260504222258 | 79 | 206 | 2.0 | 8.0 | 0.00 | 0.00 | 0.00 | 64 | 1010.9 |
| 20260504222158 | 79 | 187 | 0.0 | 8.0 | 0.00 | 0.00 | 0.00 | 64 | 1010.9 |
| 20260504222057 | 79 | 187 | 1.0 | 8.0 | 0.00 | 0.00 | 0.00 | 64 | 1010.9 |
| 20260504222000 | 79 | 175 | 3.0 | 8.0 | 0.00 | 0.00 | 0.00 | 64 | 1010.9 |
| 20260504221858 | 79 | 163 | 5.0 | 7.0 | 0.00 | 0.00 | 0.00 | 64 | 1011.0 |
| 20260504221759 | 79 | 240 | 1.0 | 5.0 | 0.00 | 0.00 | 0.00 | 64 | 1011.0 |
| 20260504221658 | 79 | 240 | 0.0 | 5.0 | 0.00 | 0.00 | 0.00 | 64 | 1011.0 |
| 20260504221456 | 79 | 240 | 2.0 | 5.0 | 0.00 | 0.00 | 0.00 | 64 | 1011.0 |
| 20260504221058 | 79 | 240 | 0.0 | 5.0 | 0.00 | 0.00 | 0.00 | 64 | 1011.1 |
| 20260504220858 | 79 | 280 | 3.0 | 5.0 | 0.00 | 0.00 | 0.00 | 64 | 1011.2 |
| 20260504220758 | 79 | 227 | 4.0 | 4.0 | 0.00 | 0.00 | 0.00 | 64 | 1011.2 |
| 20260504220658 | 79 | 153 | 1.0 | 6.0 | 0.00 | 0.00 | 0.00 | 64 | 1011.2 |
| 20260504220558 | 79 | 153 | 1.0 | 6.0 | 0.00 | 0.00 | 0.00 | 64 | 1011.2 |
| 20260504220458 | 79 | 153 | 2.0 | 6.0 | 0.00 | 0.00 | 0.00 | 64 | 1011.2 |
| 20260504220357 | 79 | 227 | 1.0 | 6.0 | 0.00 | 0.00 | 0.00 | 64 | 1011.2 |
| 20260504220257 | 79 | 227 | 0.0 | 6.0 | 0.00 | 0.00 | 0.00 | 64 | 1011.3 |
| 20260504220157 | 79 | 227 | 0.0 | 6.0 | 0.00 | 0.00 | 0.00 | 64 | 1011.2 |
| 20260504220056 | 79 | 227 | 0.0 | 6.0 | 0.00 | 0.00 | 0.00 | 64 | 1011.2 |
| 20260504220001 | 79 | 227 | 3.0 | 6.0 | 0.00 | 0.00 | 0.00 | 63 | 1011.2 |
| 20260504215856 | 79 | 245 | 1.0 | 6.0 | 0.00 | 0.00 | 0.00 | 63 | 1011.2 |
| 20260504215756 | 79 | 240 | 0.0 | 5.0 | 0.00 | 0.00 | 0.00 | 63 | 1011.2 |
| 20260504215458 | 79 | 231 | 4.0 | 5.0 | 0.00 | 0.00 | 0.00 | 63 | 1011.3 |
| 20260504215358 | 79 | 193 | 2.0 | 5.0 | 0.00 | 0.00 | 0.00 | 63 | 1011.2 |
| 20260504215256 | 79 | 193 | 0.0 | 5.0 | 0.00 | 0.00 | 0.00 | 63 | 1011.2 |
| 20260504215157 | 79 | 193 | 2.0 | 5.0 | 0.00 | 0.00 | 0.00 | 63 | 1011.2 |
| 20260504215058 | 79 | 217 | 0.0 | 5.0 | 0.00 | 0.00 | 0.00 | 63 | 1011.3 |
| 20260504214959 | 79 | 217 | 1.0 | 5.0 | 0.00 | 0.00 | 0.00 | 63 | 1011.3 |
| 20260504214858 | 80 | 112 | 1.0 | 4.0 | 0.00 | 0.00 | 0.00 | 63 | 1011.3 |
| 20260504214759 | 80 | 187 | 2.0 | 4.0 | 0.00 | 0.00 | 0.00 | 63 | 1011.3 |
| 20260504214559 | 80 | 187 | 1.0 | 5.0 | 0.00 | 0.00 | 0.00 | 63 | 1011.3 |
| 20260504214358 | 80 | 187 | 2.0 | 5.0 | 0.00 | 0.00 | 0.00 | 63 | 1011.4 |
| 20260504214057 | 80 | 187 | 1.0 | 5.0 | 0.00 | 0.00 | 0.00 | 62 | 1011.3 |
| 20260504213958 | 80 | 187 | 4.0 | 6.0 | 0.00 | 0.00 | 0.00 | 62 | 1011.4 |
| 20260504213858 | 80 | 245 | 4.0 | 6.0 | 0.00 | 0.00 | 0.00 | 62 | 1011.4 |
| 20260504213757 | 80 | 178 | 2.0 | 6.0 | 0.00 | 0.00 | 0.00 | 62 | 1011.4 |
| 20260504213656 | 80 | 178 | 1.0 | 6.0 | 0.00 | 0.00 | 0.00 | 62 | 1011.4 |
| 20260504213558 | 80 | 178 | 1.0 | 6.0 | 0.00 | 0.00 | 0.00 | 62 | 1011.4 |
| 20260504213458 | 80 | 188 | 1.0 | 6.0 | 0.00 | 0.00 | 0.00 | 62 | 1011.4 |
| 20260504213356 | 80 | 146 | 0.0 | 6.0 | 0.00 | 0.00 | 0.00 | 61 | 1011.4 |
| 20260504213156 | 80 | 234 | 2.0 | 6.0 | 0.00 | 0.00 | 0.00 | 61 | 1011.4 |
| 20260504212858 | 80 | 219 | 3.0 | 6.0 | 0.00 | 0.00 | 0.00 | 60 | 1011.3 |
| 20260504212759 | 81 | 159 | 3.0 | 6.0 | 0.00 | 0.00 | 0.00 | 60 | 1011.4 |
| 20260504212658 | 81 | 158 | 4.0 | 6.0 | 0.00 | 0.00 | 0.00 | 60 | 1011.4 |
| 20260504212557 | 81 | 181 | 5.0 | 6.0 | 0.00 | 0.00 | 0.00 | 61 | 1011.4 |
| 20260504212458 | 81 | 213 | 1.0 | 6.0 | 0.00 | 0.00 | 0.00 | 60 | 1011.4 |
| 20260504212358 | 81 | 168 | 4.0 | 6.0 | 0.00 | 0.00 | 0.00 | 60 | 1011.4 |
| 20260504212156 | 81 | 211 | 3.0 | 6.0 | 0.00 | 0.00 | 0.00 | 60 | 1011.4 |
| 20260504212056 | 81 | 182 | 1.0 | 6.0 | 0.00 | 0.00 | 0.00 | 61 | 1011.5 |
| 20260504212000 | 81 | 174 | 1.0 | 6.0 | 0.00 | 0.00 | 0.00 | 61 | 1011.5 |
| 20260504211557 | 82 | 174 | 1.0 | 6.0 | 0.00 | 0.00 | 0.00 | 59 | 1011.5 |
| 20260504211458 | 82 | 222 | 3.0 | 6.0 | 0.00 | 0.00 | 0.00 | 60 | 1011.5 |
| 20260504211256 | 82 | 221 | 4.0 | 6.0 | 0.00 | 0.00 | 0.00 | 59 | 1011.4 |
| 20260504211157 | 82 | 193 | 2.0 | 4.0 | 0.00 | 0.00 | 0.00 | 59 | 1011.5 |
| 20260504211001 | 82 | 187 | 1.0 | 4.0 | 0.00 | 0.00 | 0.00 | 60 | 1011.5 |
| 20260504210856 | 82 | 187 | 1.0 | 4.0 | 0.00 | 0.00 | 0.00 | 60 | 1011.5 |
| 20260504210758 | 82 | 187 | 0.0 | 4.0 | 0.00 | 0.00 | 0.00 | 59 | 1011.5 |
| 20260504210659 | 82 | 185 | 0.0 | 3.0 | 0.00 | 0.00 | 0.00 | 60 | 1011.5 |
| 20260504210558 | 82 | 185 | 1.0 | 3.0 | 0.00 | 0.00 | 0.00 | 60 | 1011.5 |
| 20260504210456 | 82 | 185 | 0.0 | 3.0 | 0.00 | 0.00 | 0.00 | 60 | 1011.5 |
| 20260504210356 | 82 | 185 | 0.0 | 3.0 | 0.00 | 0.00 | 0.00 | 59 | 1011.6 |
| 20260504210258 | 82 | 187 | 0.0 | 3.0 | 0.00 | 0.00 | 0.00 | 60 | 1011.6 |
| 20260504210158 | 82 | 187 | 0.0 | 3.0 | 0.00 | 0.00 | 0.00 | 59 | 1011.7 |
| 20260504205958 | 82 | 187 | 1.0 | 4.0 | 0.00 | 0.00 | 0.00 | 59 | 1011.8 |
| 20260504205858 | 82 | 187 | 1.0 | 4.0 | 0.00 | 0.00 | 0.00 | 59 | 1011.8 |
| 20260504205656 | 82 | 190 | 3.0 | 4.0 | 0.00 | 0.00 | 0.00 | 59 | 1011.8 |
| 20260504205556 | 82 | 191 | 1.0 | 4.0 | 0.00 | 0.00 | 0.00 | 59 | 1011.8 |
| 20260504205458 | 82 | 191 | 0.0 | 4.0 | 0.00 | 0.00 | 0.00 | 59 | 1011.9 |
| 20260504205356 | 82 | 191 | 1.0 | 4.0 | 0.00 | 0.00 | 0.00 | 59 | 1011.9 |
| 20260504205256 | 82 | 191 | 0.0 | 4.0 | 0.00 | 0.00 | 0.00 | 58 | 1012.0 |
| 20260504205156 | 83 | 191 | 3.0 | 4.0 | 0.00 | 0.00 | 0.00 | 58 | 1011.9 |
| 20260504205056 | 83 | 187 | 1.0 | 4.0 | 0.00 | 0.00 | 0.00 | 59 | 1012.0 |
| 20260504204959 | 83 | 189 | 2.0 | 4.0 | 0.00 | 0.00 | 0.00 | 59 | 1011.9 |
| 20260504204856 | 83 | 144 | 1.0 | 4.0 | 0.00 | 0.00 | 0.00 | 59 | 1011.9 |
| 20260504204757 | 83 | 144 | 1.0 | 4.0 | 0.00 | 0.00 | 0.00 | 59 | 1011.8 |
| 20260504204558 | 83 | 143 | 0.0 | 4.0 | 0.00 | 0.00 | 0.00 | 59 | 1011.8 |
| 20260504204458 | 83 | 143 | 2.0 | 4.0 | 0.00 | 0.00 | 0.00 | 58 | 1011.8 |
| 20260504204258 | 83 | 186 | 0.0 | 4.0 | 0.00 | 0.00 | 0.00 | 58 | 1011.9 |
| 20260504203957 | 83 | 188 | 0.0 | 4.0 | 0.00 | 0.00 | 0.00 | 58 | 1011.8 |
| 20260504203858 | 83 | 172 | 1.0 | 4.0 | 0.00 | 0.00 | 0.00 | 58 | 1011.8 |
| 20260504203758 | 83 | 194 | 1.0 | 4.0 | 0.00 | 0.00 | 0.00 | 59 | 1011.8 |
| 20260504203557 | 82 | 194 | 2.0 | 5.0 | 0.00 | 0.00 | 0.00 | 58 | 1011.9 |
| 20260504203458 | 82 | 194 | 1.0 | 5.0 | 0.00 | 0.00 | 0.00 | 58 | 1011.9 |
| 20260504203258 | 82 | 194 | 1.0 | 5.0 | 0.00 | 0.00 | 0.00 | 57 | 1012.0 |
| 20260504203156 | 83 | 201 | 4.0 | 5.0 | 0.00 | 0.00 | 0.00 | 57 | 1012.0 |
| 20260504203056 | 83 | 209 | 1.0 | 5.0 | 0.00 | 0.00 | 0.00 | 57 | 1012.0 |
| 20260504202958 | 83 | 209 | 0.0 | 5.0 | 0.00 | 0.00 | 0.00 | 57 | 1012.1 |
| 20260504202858 | 83 | 230 | 2.0 | 5.0 | 0.00 | 0.00 | 0.00 | 57 | 1012.0 |
| 20260504202757 | 83 | 179 | 0.0 | 5.0 | 0.00 | 0.00 | 0.00 | 57 | 1012.0 |
| 20260504202558 | 83 | 179 | 1.0 | 5.0 | 0.00 | 0.00 | 0.00 | 57 | 1012.1 |
| 20260504202458 | 83 | 178 | 0.0 | 5.0 | 0.00 | 0.00 | 0.00 | 57 | 1012.1 |
| 20260504202258 | 83 | 186 | 0.0 | 5.0 | 0.00 | 0.00 | 0.00 | 57 | 1012.1 |
| 20260504202159 | 83 | 183 | 0.0 | 5.0 | 0.00 | 0.00 | 0.00 | 57 | 1012.1 |
| 20260504202000 | 83 | 200 | 1.0 | 3.0 | 0.00 | 0.00 | 0.00 | 57 | 1012.3 |
| 20260504201856 | 83 | 200 | 0.0 | 3.0 | 0.00 | 0.00 | 0.00 | 57 | 1012.2 |
| 20260504201759 | 83 | 200 | 2.0 | 3.0 | 0.00 | 0.00 | 0.00 | 57 | 1012.3 |
| 20260504201658 | 83 | 200 | 1.0 | 4.0 | 0.00 | 0.00 | 0.00 | 57 | 1012.3 |
| 20260504201559 | 83 | 200 | 1.0 | 4.0 | 0.00 | 0.00 | 0.00 | 57 | 1012.3 |
| 20260504201458 | 83 | 200 | 0.0 | 4.0 | 0.00 | 0.00 | 0.00 | 57 | 1012.4 |
| 20260504201256 | 84 | 200 | 0.0 | 5.0 | 0.00 | 0.00 | 0.00 | 57 | 1012.3 |
| 20260504201156 | 84 | 194 | 0.0 | 5.0 | 0.00 | 0.00 | 0.00 | 56 | 1012.3 |
| 20260504201056 | 84 | 194 | 1.0 | 5.0 | 0.00 | 0.00 | 0.00 | 57 | 1012.4 |
| 20260504200958 | 84 | 194 | 0.0 | 5.0 | 0.00 | 0.00 | 0.00 | 57 | 1012.4 |
| 20260504200858 | 84 | 194 | 2.0 | 5.0 | 0.00 | 0.00 | 0.00 | 56 | 1012.4 |
| 20260504200756 | 84 | 189 | 1.0 | 5.0 | 0.00 | 0.00 | 0.00 | 57 | 1012.4 |
| 20260504200556 | 84 | 189 | 1.0 | 5.0 | 0.00 | 0.00 | 0.00 | 56 | 1012.4 |
| 20260504200358 | 84 | 261 | 3.0 | 4.0 | 0.00 | 0.00 | 0.00 | 57 | 1012.4 |
| 20260504200156 | 84 | 288 | 2.0 | 4.0 | 0.00 | 0.00 | 0.00 | 57 | 1012.5 |
| 20260504200058 | 84 | 319 | 0.0 | 5.0 | 0.00 | 0.00 | 0.00 | 56 | 1012.5 |
| 20260504200002 | 84 | 319 | 0.0 | 5.0 | 0.00 | 0.00 | 0.00 | 57 | 1012.5 |
| 20260504195759 | 84 | 250 | 2.0 | 5.0 | 0.00 | 0.00 | 0.00 | 57 | 1012.5 |
| 20260504195658 | 84 | 250 | 0.0 | 5.0 | 0.00 | 0.00 | 0.00 | 56 | 1012.5 |
| 20260504195558 | 84 | 316 | 0.0 | 5.0 | 0.00 | 0.00 | 0.00 | 56 | 1012.6 |
| 20260504195457 | 84 | 212 | 0.0 | 5.0 | 0.00 | 0.00 | 0.00 | 55 | 1012.5 |
| 20260504195258 | 84 | 264 | 1.0 | 5.0 | 0.00 | 0.00 | 0.00 | 56 | 1012.5 |
| 20260504195158 | 84 | 235 | 4.0 | 4.0 | 0.00 | 0.00 | 0.00 | 56 | 1012.6 |
| 20260504195056 | 84 | 137 | 0.0 | 3.0 | 0.00 | 0.00 | 0.00 | 56 | 1012.5 |
| 20260504195001 | 84 | 137 | 0.0 | 3.0 | 0.00 | 0.00 | 0.00 | 57 | 1012.6 |
| 20260504194856 | 84 | 137 | 1.0 | 3.0 | 0.00 | 0.00 | 0.00 | 56 | 1012.6 |
| 20260504194756 | 84 | 136 | 1.0 | 3.0 | 0.00 | 0.00 | 0.00 | 56 | 1012.7 |
| 20260504194659 | 84 | 136 | 2.0 | 5.0 | 0.00 | 0.00 | 0.00 | 57 | 1012.6 |
| 20260504194557 | 84 | 136 | 1.0 | 5.0 | 0.00 | 0.00 | 0.00 | 57 | 1012.6 |
| 20260504194458 | 84 | 154 | 0.0 | 5.0 | 0.00 | 0.00 | 0.00 | 58 | 1012.7 |
| 20260504194356 | 84 | 154 | 0.0 | 5.0 | 0.00 | 0.00 | 0.00 | 58 | 1012.8 |
| 20260504194256 | 84 | 154 | 2.0 | 5.0 | 0.00 | 0.00 | 0.00 | 58 | 1012.8 |
| 20260504194058 | 84 | 154 | 1.0 | 5.0 | 0.00 | 0.00 | 0.00 | 58 | 1012.7 |
| 20260504193959 | 83 | 154 | 0.0 | 5.0 | 0.00 | 0.00 | 0.00 | 57 | 1012.7 |
| 20260504193858 | 84 | 154 | 0.0 | 5.0 | 0.00 | 0.00 | 0.00 | 57 | 1012.7 |
| 20260504193759 | 84 | 166 | 3.0 | 4.0 | 0.00 | 0.00 | 0.00 | 58 | 1012.7 |
| 20260504193656 | 84 | 184 | 1.0 | 4.0 | 0.00 | 0.00 | 0.00 | 57 | 1012.7 |
| 20260504193556 | 84 | 184 | 0.0 | 4.0 | 0.00 | 0.00 | 0.00 | 57 | 1012.8 |
| 20260504193458 | 84 | 184 | 4.0 | 4.0 | 0.00 | 0.00 | 0.00 | 58 | 1012.7 |
| 20260504193258 | 83 | 148 | 0.0 | 6.0 | 0.00 | 0.00 | 0.00 | 58 | 1012.7 |
| 20260504193158 | 83 | 148 | 0.0 | 6.0 | 0.00 | 0.00 | 0.00 | 57 | 1012.7 |
| 20260504193056 | 83 | 198 | 0.0 | 6.0 | 0.00 | 0.00 | 0.00 | 57 | 1012.8 |
| 20260504193000 | 83 | 181 | 1.0 | 6.0 | 0.00 | 0.00 | 0.00 | 58 | 1012.8 |
| 20260504192856 | 83 | 181 | 0.0 | 6.0 | 0.00 | 0.00 | 0.00 | 58 | 1012.9 |
| 20260504192758 | 83 | 181 | 1.0 | 6.0 | 0.00 | 0.00 | 0.00 | 57 | 1012.8 |
| 20260504192656 | 83 | 181 | 1.0 | 6.0 | 0.00 | 0.00 | 0.00 | 57 | 1012.9 |
| 20260504192556 | 83 | 171 | 4.0 | 6.0 | 0.00 | 0.00 | 0.00 | 57 | 1012.9 |
| 20260504192456 | 83 | 170 | 3.0 | 5.0 | 0.00 | 0.00 | 0.00 | 57 | 1013.1 |
| 20260504192358 | 83 | 240 | 3.0 | 3.0 | 0.00 | 0.00 | 0.00 | 58 | 1013.1 |
| 20260504192257 | 83 | 259 | 2.0 | 3.0 | 0.00 | 0.00 | 0.00 | 59 | 1013.1 |
| 20260504192158 | 83 | 259 | 1.0 | 3.0 | 0.00 | 0.00 | 0.00 | 58 | 1013.2 |
| 20260504192058 | 83 | 259 | 2.0 | 3.0 | 0.00 | 0.00 | 0.00 | 58 | 1013.1 |
| 20260504192000 | 83 | 260 | 1.0 | 3.0 | 0.00 | 0.00 | 0.00 | 58 | 1013.1 |
| 20260504191858 | 83 | 260 | 0.0 | 4.0 | 0.00 | 0.00 | 0.00 | 58 | 1013.1 |
| 20260504191659 | 83 | 260 | 3.0 | 4.0 | 0.00 | 0.00 | 0.00 | 58 | 1013.2 |
| 20260504191558 | 83 | 85 | 1.0 | 4.0 | 0.00 | 0.00 | 0.00 | 58 | 1013.1 |
| 20260504191458 | 83 | 85 | 1.0 | 4.0 | 0.00 | 0.00 | 0.00 | 57 | 1013.1 |
| 20260504191257 | 83 | 85 | 2.0 | 4.0 | 0.00 | 0.00 | 0.00 | 57 | 1013.1 |
| 20260504191158 | 83 | 167 | 1.0 | 6.0 | 0.00 | 0.00 | 0.00 | 58 | 1013.1 |
| 20260504191057 | 83 | 166 | 0.0 | 6.0 | 0.00 | 0.00 | 0.00 | 57 | 1013.2 |
| 20260504190958 | 83 | 168 | 0.0 | 6.0 | 0.00 | 0.00 | 0.00 | 58 | 1013.2 |
| 20260504190856 | 83 | 168 | 0.0 | 6.0 | 0.00 | 0.00 | 0.00 | 58 | 1013.2 |
| 20260504190757 | 83 | 166 | 3.0 | 9.0 | 0.00 | 0.00 | 0.00 | 59 | 1013.2 |
| 20260504190659 | 82 | 181 | 0.0 | 9.0 | 0.00 | 0.00 | 0.00 | 58 | 1013.2 |
| 20260504190557 | 82 | 181 | 2.0 | 9.0 | 0.00 | 0.00 | 0.00 | 58 | 1013.2 |
| 20260504190457 | 82 | 104 | 1.0 | 9.0 | 0.00 | 0.00 | 0.00 | 58 | 1013.1 |
| 20260504190356 | 82 | 95 | 6.0 | 9.0 | 0.00 | 0.00 | 0.00 | 58 | 1013.2 |
| 20260504190256 | 82 | 178 | 2.0 | 9.0 | 0.00 | 0.00 | 0.00 | 58 | 1013.2 |
| 20260504190156 | 82 | 194 | 1.0 | 9.0 | 0.00 | 0.00 | 0.00 | 59 | 1013.1 |
| 20260504190004 | 82 | 166 | 1.0 | 9.0 | 0.00 | 0.00 | 0.00 | 57 | 1013.1 |
| 20260504185858 | 82 | 171 | 7.0 | 7.0 | 0.00 | 0.00 | 0.00 | 60 | 1013.1 |
| 20260504185757 | 82 | 221 | 0.0 | 5.0 | 0.00 | 0.00 | 0.00 | 59 | 1013.1 |
| 20260504185656 | 82 | 221 | 0.0 | 5.0 | 0.00 | 0.00 | 0.00 | 58 | 1013.2 |
| 20260504185558 | 82 | 226 | 2.0 | 5.0 | 0.00 | 0.00 | 0.00 | 58 | 1013.2 |
| 20260504185459 | 82 | 226 | 0.0 | 5.0 | 0.00 | 0.00 | 0.00 | 58 | 1013.3 |
| 20260504185356 | 82 | 233 | 0.0 | 6.0 | 0.00 | 0.00 | 0.00 | 59 | 1013.4 |
| 20260504185256 | 82 | 233 | 0.0 | 6.0 | 0.00 | 0.00 | 0.00 | 58 | 1013.4 |
| 20260504185158 | 82 | 232 | 2.0 | 6.0 | 0.00 | 0.00 | 0.00 | 58 | 1013.4 |
| 20260504184958 | 82 | 179 | 0.0 | 6.0 | 0.00 | 0.00 | 0.00 | 58 | 1013.3 |
| 20260504184856 | 82 | 179 | 1.0 | 6.0 | 0.00 | 0.00 | 0.00 | 58 | 1013.3 |
| 20260504184759 | 82 | 240 | 0.0 | 6.0 | 0.00 | 0.00 | 0.00 | 58 | 1013.4 |
| 20260504184655 | 82 | 240 | 1.0 | 6.0 | 0.00 | 0.00 | 0.00 | 58 | 1013.4 |
| 20260504184557 | 82 | 240 | 0.0 | 6.0 | 0.00 | 0.00 | 0.00 | 57 | 1013.4 |
| 20260504184457 | 82 | 204 | 4.0 | 5.0 | 0.00 | 0.00 | 0.00 | 57 | 1013.4 |
| 20260504184359 | 82 | 175 | 2.0 | 5.0 | 0.00 | 0.00 | 0.00 | 57 | 1013.4 |
| 20260504184258 | 82 | 264 | 0.0 | 5.0 | 0.00 | 0.00 | 0.00 | 57 | 1013.5 |
| 20260504184158 | 82 | 327 | 3.0 | 5.0 | 0.00 | 0.00 | 0.00 | 58 | 1013.4 |
| 20260504184056 | 82 | 30 | 2.0 | 5.0 | 0.00 | 0.00 | 0.00 | 57 | 1013.4 |
| 20260504183856 | 82 | 219 | 3.0 | 5.0 | 0.00 | 0.00 | 0.00 | 57 | 1013.5 |
| 20260504183756 | 83 | 217 | 3.0 | 4.0 | 0.00 | 0.00 | 0.00 | 58 | 1013.5 |
| 20260504183657 | 82 | 171 | 2.0 | 4.0 | 0.00 | 0.00 | 0.00 | 58 | 1013.4 |
| 20260504183558 | 82 | 171 | 1.0 | 4.0 | 0.00 | 0.00 | 0.00 | 59 | 1013.4 |
| 20260504183357 | 82 | 171 | 1.0 | 4.0 | 0.00 | 0.00 | 0.00 | 58 | 1013.4 |
| 20260504183256 | 82 | 171 | 1.0 | 4.0 | 0.00 | 0.00 | 0.00 | 58 | 1013.4 |
| 20260504183156 | 82 | 183 | 0.0 | 4.0 | 0.00 | 0.00 | 0.00 | 58 | 1013.4 |
| 20260504183056 | 82 | 183 | 1.0 | 4.0 | 0.00 | 0.00 | 0.00 | 58 | 1013.4 |
| 20260504182959 | 82 | 183 | 0.0 | 4.0 | 0.00 | 0.00 | 0.00 | 58 | 1013.4 |
| 20260504182856 | 82 | 183 | 1.0 | 4.0 | 0.00 | 0.00 | 0.00 | 58 | 1013.4 |
| 20260504182757 | 82 | 183 | 2.0 | 4.0 | 0.00 | 0.00 | 0.00 | 58 | 1013.4 |
| 20260504182656 | 82 | 183 | 1.0 | 4.0 | 0.00 | 0.00 | 0.00 | 57 | 1013.5 |
| 20260504182558 | 82 | 182 | 0.0 | 4.0 | 0.00 | 0.00 | 0.00 | 58 | 1013.5 |
| 20260504182458 | 82 | 182 | 2.0 | 4.0 | 0.00 | 0.00 | 0.00 | 58 | 1013.5 |
| 20260504182356 | 82 | 182 | 2.0 | 4.0 | 0.00 | 0.00 | 0.00 | 59 | 1013.6 |
| 20260504182258 | 82 | 185 | 1.0 | 3.0 | 0.00 | 0.00 | 0.00 | 58 | 1013.6 |
| 20260504182157 | 82 | 185 | 0.0 | 3.0 | 0.00 | 0.00 | 0.00 | 58 | 1013.6 |
| 20260504182059 | 82 | 185 | 0.0 | 3.0 | 0.00 | 0.00 | 0.00 | 59 | 1013.5 |
| 20260504182000 | 82 | 185 | 0.0 | 4.0 | 0.00 | 0.00 | 0.00 | 59 | 1013.5 |
| 20260504181757 | 82 | 185 | 1.0 | 4.0 | 0.00 | 0.00 | 0.00 | 59 | 1013.6 |
| 20260504181658 | 82 | 271 | 0.0 | 4.0 | 0.00 | 0.00 | 0.00 | 59 | 1013.6 |
| 20260504181558 | 82 | 271 | 0.0 | 4.0 | 0.00 | 0.00 | 0.00 | 59 | 1013.6 |
| 20260504181457 | 81 | 271 | 0.0 | 4.0 | 0.00 | 0.00 | 0.00 | 59 | 1013.7 |
| 20260504181356 | 81 | 295 | 3.0 | 4.0 | 0.00 | 0.00 | 0.00 | 60 | 1013.7 |
| 20260504181258 | 81 | 296 | 0.0 | 4.0 | 0.00 | 0.00 | 0.00 | 59 | 1013.8 |
| 20260504181156 | 81 | 296 | 2.0 | 4.0 | 0.00 | 0.00 | 0.00 | 60 | 1013.7 |
| 20260504180959 | 81 | 308 | 0.0 | 4.0 | 0.00 | 0.00 | 0.00 | 60 | 1013.8 |
| 20260504180857 | 81 | 308 | 1.0 | 4.0 | 0.00 | 0.00 | 0.00 | 60 | 1013.8 |
| 20260504180758 | 81 | 308 | 0.0 | 4.0 | 0.00 | 0.00 | 0.00 | 60 | 1013.8 |
| 20260504180558 | 80 | 308 | 0.0 | 4.0 | 0.00 | 0.00 | 0.00 | 61 | 1013.9 |
| 20260504180457 | 80 | 182 | 0.0 | 6.0 | 0.00 | 0.00 | 0.00 | 62 | 1013.9 |
| 20260504180256 | 80 | 182 | 0.0 | 6.0 | 0.00 | 0.00 | 0.00 | 61 | 1014.0 |
| 20260504180158 | 80 | 182 | 0.0 | 6.0 | 0.00 | 0.00 | 0.00 | 61 | 1014.0 |
| 20260504180057 | 80 | 182 | 3.0 | 6.0 | 0.00 | 0.00 | 0.00 | 61 | 1014.1 |
| 20260504180001 | 80 | 171 | 0.0 | 6.0 | 0.00 | 0.00 | 0.00 | 59 | 1013.9 |
| 20260504175858 | 80 | 171 | 0.0 | 6.0 | 0.00 | 0.00 | 0.00 | 59 | 1013.9 |
| 20260504175558 | 80 | 175 | 0.0 | 6.0 | 0.00 | 0.00 | 0.00 | 59 | 1014.1 |
| 20260504175458 | 80 | 177 | 4.0 | 6.0 | 0.00 | 0.00 | 0.00 | 59 | 1014.1 |
| 20260504175358 | 80 | 171 | 5.0 | 6.0 | 0.00 | 0.00 | 0.00 | 59 | 1014.1 |
| 20260504175256 | 80 | 166 | 4.0 | 6.0 | 0.00 | 0.00 | 0.00 | 60 | 1014.0 |
| 20260504175156 | 80 | 217 | 0.0 | 4.0 | 0.00 | 0.00 | 0.00 | 60 | 1014.1 |
| 20260504175058 | 80 | 217 | 3.0 | 4.0 | 0.00 | 0.00 | 0.00 | 60 | 1014.1 |
| 20260504174958 | 80 | 140 | 0.0 | 6.0 | 0.00 | 0.00 | 0.00 | 60 | 1014.1 |
| 20260504174857 | 80 | 139 | 0.0 | 6.0 | 0.00 | 0.00 | 0.00 | 60 | 1014.2 |
| 20260504174758 | 80 | 179 | 4.0 | 6.0 | 0.00 | 0.00 | 0.00 | 60 | 1014.2 |
| 20260504174557 | 80 | 165 | 1.0 | 6.0 | 0.00 | 0.00 | 0.00 | 60 | 1014.2 |
| 20260504174458 | 80 | 165 | 1.0 | 6.0 | 0.00 | 0.00 | 0.00 | 60 | 1014.2 |
| 20260504174400 | 80 | 165 | 1.0 | 6.0 | 0.00 | 0.00 | 0.00 | 60 | 1014.2 |
| 20260504174257 | 80 | 156 | 1.0 | 6.0 | 0.00 | 0.00 | 0.00 | 60 | 1014.2 |
| 20260504174158 | 80 | 156 | 3.0 | 6.0 | 0.00 | 0.00 | 0.00 | 60 | 1014.2 |
| 20260504174056 | 80 | 156 | 2.0 | 3.0 | 0.00 | 0.00 | 0.00 | 60 | 1014.2 |
| 20260504173858 | 80 | 156 | 1.0 | 5.0 | 0.00 | 0.00 | 0.00 | 60 | 1014.3 |
| 20260504173758 | 80 | 156 | 0.0 | 8.0 | 0.00 | 0.00 | 0.00 | 61 | 1014.2 |
| 20260504173657 | 80 | 156 | 0.0 | 8.0 | 0.00 | 0.00 | 0.00 | 61 | 1014.2 |
| 20260504173558 | 80 | 156 | 0.0 | 8.0 | 0.00 | 0.00 | 0.00 | 60 | 1014.2 |
| 20260504173458 | 80 | 156 | 0.0 | 8.0 | 0.00 | 0.00 | 0.00 | 60 | 1014.2 |
| 20260504173356 | 80 | 166 | 0.0 | 8.0 | 0.00 | 0.00 | 0.00 | 60 | 1014.2 |
| 20260504173257 | 80 | 166 | 0.0 | 8.0 | 0.00 | 0.00 | 0.00 | 60 | 1014.3 |
| 20260504173056 | 80 | 166 | 4.0 | 8.0 | 0.00 | 0.00 | 0.00 | 59 | 1014.3 |
| 20260504172959 | 80 | 171 | 2.0 | 8.0 | 0.00 | 0.00 | 0.00 | 59 | 1014.4 |
| 20260504172856 | 80 | 223 | 3.0 | 4.0 | 0.00 | 0.00 | 0.00 | 60 | 1014.3 |
| 20260504172758 | 80 | 224 | 0.0 | 6.0 | 0.00 | 0.00 | 0.00 | 59 | 1014.4 |
| 20260504172657 | 80 | 225 | 0.0 | 6.0 | 0.00 | 0.00 | 0.00 | 59 | 1014.4 |
| 20260504172558 | 80 | 225 | 0.0 | 6.0 | 0.00 | 0.00 | 0.00 | 59 | 1014.4 |
| 20260504172357 | 80 | 283 | 0.0 | 6.0 | 0.00 | 0.00 | 0.00 | 60 | 1014.5 |
| 20260504172258 | 80 | 229 | 0.0 | 6.0 | 0.00 | 0.00 | 0.00 | 60 | 1014.6 |
| 20260504172158 | 80 | 231 | 0.0 | 6.0 | 0.00 | 0.00 | 0.00 | 59 | 1014.6 |
| 20260504172055 | 80 | 231 | 2.0 | 7.0 | 0.00 | 0.00 | 0.00 | 59 | 1014.6 |
| 20260504172000 | 80 | 231 | 1.0 | 7.0 | 0.00 | 0.00 | 0.00 | 58 | 1014.6 |
| 20260504171758 | 81 | 210 | 3.0 | 8.0 | 0.00 | 0.00 | 0.00 | 59 | 1014.6 |
| 20260504171656 | 81 | 149 | 1.0 | 8.0 | 0.00 | 0.00 | 0.00 | 58 | 1014.6 |
| 20260504171559 | 81 | 160 | 0.0 | 8.0 | 0.00 | 0.00 | 0.00 | 59 | 1014.7 |
| 20260504171457 | 81 | 160 | 2.0 | 8.0 | 0.00 | 0.00 | 0.00 | 59 | 1014.6 |
| 20260504171358 | 80 | 170 | 3.0 | 8.0 | 0.00 | 0.00 | 0.00 | 59 | 1014.6 |
| 20260504171156 | 80 | 162 | 1.0 | 8.0 | 0.00 | 0.00 | 0.00 | 59 | 1014.6 |
| 20260504171000 | 80 | 160 | 1.0 | 5.0 | 0.00 | 0.00 | 0.00 | 60 | 1014.6 |
| 20260504170756 | 80 | 152 | 1.0 | 5.0 | 0.00 | 0.00 | 0.00 | 59 | 1014.7 |
| 20260504170656 | 80 | 202 | 0.0 | 5.0 | 0.00 | 0.00 | 0.00 | 59 | 1014.7 |
| 20260504170556 | 80 | 202 | 0.0 | 5.0 | 0.00 | 0.00 | 0.00 | 59 | 1014.7 |
| 20260504170356 | 80 | 174 | 2.0 | 5.0 | 0.00 | 0.00 | 0.00 | 60 | 1014.8 |
| 20260504170156 | 80 | 185 | 1.0 | 5.0 | 0.00 | 0.00 | 0.00 | 60 | 1014.9 |
| 20260504160358 | 77 | 166 | 2.0 | 7.0 | 0.00 | 0.00 | 0.00 | 64 | 1015.7 |
| 20260504160258 | 77 | 171 | 0.0 | 7.0 | 0.00 | 0.00 | 0.00 | 64 | 1015.7 |
| 20260504151057 | 75 | 179 | 0.0 | 6.0 | 0.00 | 0.00 | 0.00 | 65 | 1015.6 |
| 20260504150959 | 75 | 225 | 1.0 | 6.0 | 0.00 | 0.00 | 0.00 | 65 | 1015.6 |
| 20260504150757 | 75 | 146 | 4.0 | 6.0 | 0.00 | 0.00 | 0.00 | 65 | 1015.6 |
| 20260504150657 | 75 | 260 | 4.0 | 5.0 | 0.00 | 0.00 | 0.00 | 65 | 1015.6 |
| 20260504150558 | 75 | 193 | 3.0 | 5.0 | 0.00 | 0.00 | 0.00 | 65 | 1015.6 |
| 20260504150500 | 75 | 197 | 0.0 | 5.0 | 0.00 | 0.00 | 0.00 | 65 | 1015.6 |
| 20260504150400 | 75 | 197 | 2.0 | 5.0 | 0.00 | 0.00 | 0.00 | 65 | 1015.6 |
| 20260504150257 | 75 | 196 | 3.0 | 5.0 | 0.00 | 0.00 | 0.00 | 65 | 1015.6 |
| 20260504141159 | 71 | 240 | 0.0 | 3.0 | 0.00 | 0.00 | 0.00 | 65 | 1015.8 |
| 20260504141055 | 71 | 240 | 1.0 | 3.0 | 0.00 | 0.00 | 0.00 | 65 | 1015.8 |
| 20260504140958 | 71 | 240 | 0.0 | 3.0 | 0.00 | 0.00 | 0.00 | 65 | 1015.8 |
| 20260504140856 | 71 | 240 | 2.0 | 3.0 | 0.00 | 0.00 | 0.00 | 65 | 1015.7 |
| 20260504140758 | 71 | 240 | 2.0 | 4.0 | 0.00 | 0.00 | 0.00 | 65 | 1015.7 |
| 20260504140658 | 70 | 240 | 1.0 | 6.0 | 0.00 | 0.00 | 0.00 | 65 | 1015.7 |
| 20260504140558 | 70 | 240 | 1.0 | 6.0 | 0.00 | 0.00 | 0.00 | 65 | 1015.7 |
| 20260504140456 | 70 | 240 | 0.0 | 6.0 | 0.00 | 0.00 | 0.00 | 64 | 1015.7 |
| 20260504140358 | 70 | 240 | 1.0 | 6.0 | 0.00 | 0.00 | 0.00 | 64 | 1015.7 |
| 20260504140255 | 70 | 240 | 0.0 | 6.0 | 0.00 | 0.00 | 0.00 | 64 | 1015.7 |
| 20260504130657 | 59 | 188 | 0.0 | 0.0 | 0.00 | 0.00 | 0.00 | 11 | 1015.7 |
| 20260504130457 | 59 | 188 | 0.0 | 0.0 | 0.00 | 0.00 | 0.00 | 12 | 1015.6 |
| 20260504130357 | 59 | 188 | 0.0 | 0.0 | 0.00 | 0.00 | 0.00 | 12 | 1015.6 |
| 20260504130257 | 59 | 188 | 0.0 | 0.0 | 0.00 | 0.00 | 0.00 | 13 | 1015.7 |
| 20260504130157 | 59 | 188 | 0.0 | 0.0 | 0.00 | 0.00 | 0.00 | 14 | 1015.6 |
| 20260504120256 | 55 | 188 | 0.0 | 0.0 | 0.00 | 0.00 | 0.00 | 33 | 1015.4 |
| 20260504120158 | 55 | 188 | 0.0 | 0.0 | 0.00 | 0.00 | 0.00 | 33 | 1015.4 |
| 20260504110658 | 55 | 188 | 0.0 | 0.0 | 0.00 | 0.00 | 0.00 | 41 | 1015.4 |
| 20260504110556 | 55 | 188 | 0.0 | 0.0 | 0.00 | 0.00 | 0.00 | 42 | 1015.3 |
| 20260504110456 | 55 | 188 | 0.0 | 0.0 | 0.00 | 0.00 | 0.00 | 43 | 1015.3 |
| 20260504110358 | 55 | 188 | 0.0 | 0.0 | 0.00 | 0.00 | 0.00 | 45 | 1015.3 |
| 20260504110257 | 55 | 188 | 0.0 | 0.0 | 0.00 | 0.00 | 0.00 | 46 | 1015.3 |
| 20260504110156 | 55 | 188 | 0.0 | 0.0 | 0.00 | 0.00 | 0.00 | 46 | 1015.4 |
| 20260504100558 | 56 | 188 | 0.0 | 0.0 | 0.00 | 0.00 | 0.00 | 51 | 1015.6 |
| 20260504100357 | 56 | 188 | 0.0 | 0.0 | 0.00 | 0.00 | 0.00 | 50 | 1015.6 |
| 20260504100158 | 56 | 188 | 0.0 | 0.0 | 0.00 | 0.00 | 0.00 | 50 | 1015.5 |
| 20260504081958 | 57 | 188 | 0.0 | 0.0 | 0.00 | 0.00 | 0.00 | 58 | 1016.1 |
| 20260504081858 | 57 | 188 | 0.0 | 0.0 | 0.00 | 0.00 | 0.00 | 58 | 1016.0 |
| 20260504081656 | 57 | 188 | 0.0 | 0.0 | 0.00 | 0.00 | 0.00 | 58 | 1016.0 |
| 20260504081559 | 57 | 188 | 0.0 | 0.0 | 0.00 | 0.00 | 0.00 | 58 | 1016.1 |
| 20260504081457 | 57 | 188 | 0.0 | 0.0 | 0.00 | 0.00 | 0.00 | 59 | 1016.1 |
| 20260504081358 | 57 | 188 | 0.0 | 0.0 | 0.00 | 0.00 | 0.00 | 59 | 1016.1 |
| 20260504081158 | 57 | 188 | 0.0 | 0.0 | 0.00 | 0.00 | 0.00 | 60 | 1016.2 |
| 20260504081057 | 57 | 188 | 0.0 | 0.0 | 0.00 | 0.00 | 0.00 | 60 | 1016.3 |
| 20260504081000 | 57 | 188 | 0.0 | 0.0 | 0.00 | 0.00 | 0.00 | 60 | 1016.3 |
| 20260504080900 | 58 | 188 | 0.0 | 0.0 | 0.00 | 0.00 | 0.00 | 60 | 1016.4 |
| 20260504080659 | 58 | 188 | 0.0 | 0.0 | 0.00 | 0.00 | 0.00 | 60 | 1016.4 |
| 20260504080558 | 58 | 188 | 0.0 | 0.0 | 0.00 | 0.00 | 0.00 | 60 | 1016.4 |
| 20260504080457 | 58 | 188 | 0.0 | 0.0 | 0.00 | 0.00 | 0.00 | 61 | 1016.4 |
| 20260504080359 | 58 | 188 | 0.0 | 0.0 | 0.00 | 0.00 | 0.00 | 61 | 1016.4 |
| 20260504080257 | 58 | 188 | 0.0 | 0.0 | 0.00 | 0.00 | 0.00 | 61 | 1016.4 |
| 20260504070255 | 58 | 188 | 0.0 | 0.0 | 0.00 | 0.00 | 0.00 | 64 | 1017.2 |
| 20260504070158 | 58 | 188 | 0.0 | 0.0 | 0.00 | 0.00 | 0.00 | 64 | 1017.3 |
| 20260504060159 | 59 | 188 | 0.0 | 0.0 | 0.00 | 0.00 | 0.00 | 67 | 1017.6 |
| 20260504050656 | 60 | 188 | 0.0 | 0.0 | 0.00 | 0.00 | 0.00 | 68 | 1018.0 |
| 20260504050558 | 61 | 188 | 0.0 | 0.0 | 0.00 | 0.00 | 0.00 | 68 | 1018.0 |
| 20260504050357 | 61 | 188 | 0.0 | 0.0 | 0.00 | 0.00 | 0.00 | 68 | 1018.0 |
| 20260504050256 | 61 | 188 | 0.0 | 0.0 | 0.00 | 0.00 | 0.00 | 68 | 1018.0 |
| 20260504050158 | 61 | 188 | 0.0 | 0.0 | 0.00 | 0.00 | 0.00 | 68 | 1018.0 |
| 20260504045958 | 61 | 188 | 0.0 | 0.0 | 0.00 | 0.00 | 0.00 | 68 | 1018.0 |
| 20260504045857 | 61 | 188 | 0.0 | 0.0 | 0.00 | 0.00 | 0.00 | 68 | 1018.0 |
| 20260504045758 | 61 | 188 | 0.0 | 0.0 | 0.00 | 0.00 | 0.00 | 68 | 1018.0 |
| 20260504045658 | 61 | 188 | 0.0 | 0.0 | 0.00 | 0.00 | 0.00 | 68 | 1018.0 |
| 20260504045457 | 61 | 188 | 0.0 | 0.0 | 0.00 | 0.00 | 0.00 | 68 | 1018.0 |
| 20260504045357 | 61 | 188 | 0.0 | 0.0 | 0.00 | 0.00 | 0.00 | 68 | 1018.0 |
| 20260504045256 | 61 | 188 | 0.0 | 0.0 | 0.00 | 0.00 | 0.00 | 68 | 1018.0 |
| 20260504045156 | 61 | 188 | 0.0 | 0.0 | 0.00 | 0.00 | 0.00 | 68 | 1018.0 |
| 20260504045056 | 61 | 188 | 0.0 | 0.0 | 0.00 | 0.00 | 0.00 | 68 | 1018.0 |
| 20260504044958 | 61 | 188 | 0.0 | 0.0 | 0.00 | 0.00 | 0.00 | 68 | 1018.0 |
| 20260504044858 | 61 | 188 | 0.0 | 0.0 | 0.00 | 0.00 | 0.00 | 68 | 1018.0 |
| 20260504044757 | 61 | 188 | 0.0 | 0.0 | 0.00 | 0.00 | 0.00 | 69 | 1018.1 |
| 20260504044557 | 61 | 188 | 0.0 | 0.0 | 0.00 | 0.00 | 0.00 | 69 | 1018.1 |
| 20260504044458 | 61 | 188 | 0.0 | 0.0 | 0.00 | 0.00 | 0.00 | 69 | 1018.1 |
| 20260504044359 | 61 | 188 | 0.0 | 0.0 | 0.00 | 0.00 | 0.00 | 69 | 1018.1 |
| 20260504044258 | 61 | 188 | 0.0 | 0.0 | 0.00 | 0.00 | 0.00 | 69 | 1018.1 |
| 20260504044159 | 61 | 188 | 0.0 | 0.0 | 0.00 | 0.00 | 0.00 | 69 | 1018.1 |
| 20260504044058 | 61 | 188 | 0.0 | 0.0 | 0.00 | 0.00 | 0.00 | 69 | 1018.1 |
| 20260504044001 | 61 | 188 | 0.0 | 0.0 | 0.00 | 0.00 | 0.00 | 69 | 1018.2 |
| 20260504043757 | 61 | 188 | 0.0 | 0.0 | 0.00 | 0.00 | 0.00 | 68 | 1018.2 |
| 20260504043659 | 61 | 188 | 0.0 | 0.0 | 0.00 | 0.00 | 0.00 | 68 | 1018.2 |
| 20260504043559 | 61 | 188 | 0.0 | 0.0 | 0.00 | 0.00 | 0.00 | 68 | 1018.1 |
| 20260504043358 | 61 | 188 | 0.0 | 0.0 | 0.00 | 0.00 | 0.00 | 69 | 1018.1 |
| 20260504043258 | 61 | 188 | 0.0 | 0.0 | 0.00 | 0.00 | 0.00 | 69 | 1018.0 |
| 20260504043158 | 61 | 188 | 0.0 | 0.0 | 0.00 | 0.00 | 0.00 | 68 | 1018.1 |
| 20260504042856 | 61 | 188 | 0.0 | 0.0 | 0.00 | 0.00 | 0.00 | 68 | 1018.2 |
| 20260504042757 | 62 | 188 | 0.0 | 0.0 | 0.00 | 0.00 | 0.00 | 68 | 1018.2 |
| 20260504042658 | 62 | 188 | 0.0 | 0.0 | 0.00 | 0.00 | 0.00 | 68 | 1018.3 |
| 20260504042557 | 62 | 188 | 0.0 | 0.0 | 0.00 | 0.00 | 0.00 | 68 | 1018.3 |
| 20260504042357 | 62 | 188 | 0.0 | 0.0 | 0.00 | 0.00 | 0.00 | 68 | 1018.2 |
| 20260504042258 | 62 | 188 | 0.0 | 0.0 | 0.00 | 0.00 | 0.00 | 68 | 1018.2 |
| 20260504042158 | 62 | 188 | 0.0 | 0.0 | 0.00 | 0.00 | 0.00 | 68 | 1018.2 |
| 20260504042058 | 62 | 188 | 0.0 | 0.0 | 0.00 | 0.00 | 0.00 | 68 | 1018.2 |
| 20260504042000 | 62 | 188 | 0.0 | 0.0 | 0.00 | 0.00 | 0.00 | 67 | 1018.1 |
| 20260504041856 | 62 | 188 | 0.0 | 0.0 | 0.00 | 0.00 | 0.00 | 67 | 1018.2 |
| 20260504041757 | 62 | 188 | 0.0 | 0.0 | 0.00 | 0.00 | 0.00 | 67 | 1018.2 |
| 20260504041657 | 62 | 188 | 0.0 | 0.0 | 0.00 | 0.00 | 0.00 | 66 | 1018.1 |
| 20260504041559 | 62 | 188 | 0.0 | 0.0 | 0.00 | 0.00 | 0.00 | 67 | 1018.1 |
| 20260504041459 | 62 | 188 | 0.0 | 0.0 | 0.00 | 0.00 | 0.00 | 67 | 1018.2 |
| 20260504041257 | 62 | 188 | 0.0 | 0.0 | 0.00 | 0.00 | 0.00 | 67 | 1018.2 |
| 20260504041157 | 62 | 188 | 0.0 | 0.0 | 0.00 | 0.00 | 0.00 | 67 | 1018.1 |
| 20260504041058 | 63 | 188 | 0.0 | 0.0 | 0.00 | 0.00 | 0.00 | 67 | 1018.2 |
| 20260504040958 | 63 | 188 | 0.0 | 0.0 | 0.00 | 0.00 | 0.00 | 66 | 1018.2 |
| 20260504040856 | 63 | 188 | 0.0 | 0.0 | 0.00 | 0.00 | 0.00 | 66 | 1018.2 |
| 20260504040757 | 63 | 188 | 0.0 | 0.0 | 0.00 | 0.00 | 0.00 | 65 | 1018.2 |
| 20260504040658 | 63 | 188 | 0.0 | 0.0 | 0.00 | 0.00 | 0.00 | 65 | 1018.2 |
| 20260504040358 | 63 | 188 | 0.0 | 0.0 | 0.00 | 0.00 | 0.00 | 65 | 1018.0 |
| 20260504040259 | 63 | 188 | 0.0 | 0.0 | 0.00 | 0.00 | 0.00 | 66 | 1018.0 |
| 20260504040157 | 63 | 188 | 0.0 | 0.0 | 0.00 | 0.00 | 0.00 | 65 | 1018.0 |
| 20260504040056 | 63 | 188 | 0.0 | 0.0 | 0.00 | 0.00 | 0.00 | 65 | 1017.9 |
| 20260504035957 | 63 | 188 | 0.0 | 0.0 | 0.00 | 0.00 | 0.00 | 65 | 1018.0 |
| 20260504035858 | 63 | 188 | 0.0 | 0.0 | 0.00 | 0.00 | 0.00 | 65 | 1018.0 |
| 20260504035756 | 63 | 188 | 0.0 | 0.0 | 0.00 | 0.00 | 0.00 | 65 | 1018.1 |
| 20260504035658 | 63 | 188 | 0.0 | 0.0 | 0.00 | 0.00 | 0.00 | 65 | 1018.0 |
| 20260504035559 | 64 | 188 | 0.0 | 0.0 | 0.00 | 0.00 | 0.00 | 64 | 1018.0 |
| 20260504035458 | 64 | 188 | 0.0 | 0.0 | 0.00 | 0.00 | 0.00 | 64 | 1018.0 |
| 20260504035357 | 64 | 188 | 0.0 | 0.0 | 0.00 | 0.00 | 0.00 | 64 | 1018.0 |
| 20260504035256 | 64 | 188 | 0.0 | 0.0 | 0.00 | 0.00 | 0.00 | 64 | 1018.0 |
| 20260504035058 | 64 | 188 | 0.0 | 0.0 | 0.00 | 0.00 | 0.00 | 65 | 1018.0 |
| 20260504034958 | 64 | 188 | 0.0 | 0.0 | 0.00 | 0.00 | 0.00 | 66 | 1018.1 |
| 20260504034858 | 64 | 188 | 0.0 | 0.0 | 0.00 | 0.00 | 0.00 | 66 | 1018.1 |
| 20260504034757 | 64 | 188 | 0.0 | 0.0 | 0.00 | 0.00 | 0.00 | 65 | 1018.0 |
| 20260504034656 | 64 | 188 | 0.0 | 0.0 | 0.00 | 0.00 | 0.00 | 65 | 1018.2 |
| 20260504034456 | 64 | 188 | 0.0 | 0.0 | 0.00 | 0.00 | 0.00 | 65 | 1018.2 |
| 20260504034258 | 64 | 188 | 0.0 | 0.0 | 0.00 | 0.00 | 0.00 | 65 | 1018.3 |
| 20260504034159 | 64 | 188 | 0.0 | 0.0 | 0.00 | 0.00 | 0.00 | 65 | 1018.2 |
| 20260504034058 | 65 | 188 | 0.0 | 0.0 | 0.00 | 0.00 | 0.00 | 65 | 1018.3 |
| 20260504034000 | 65 | 188 | 0.0 | 0.0 | 0.00 | 0.00 | 0.00 | 65 | 1018.2 |
| 20260504033759 | 65 | 188 | 0.0 | 0.0 | 0.00 | 0.00 | 0.00 | 64 | 1018.2 |
| 20260504033558 | 65 | 188 | 0.0 | 0.0 | 0.00 | 0.00 | 0.00 | 63 | 1018.2 |
| 20260504033456 | 65 | 188 | 0.0 | 0.0 | 0.00 | 0.00 | 0.00 | 64 | 1018.2 |
| 20260504033359 | 65 | 188 | 0.0 | 0.0 | 0.00 | 0.00 | 0.00 | 64 | 1018.2 |
| 20260504033256 | 65 | 188 | 0.0 | 0.0 | 0.00 | 0.00 | 0.00 | 64 | 1018.2 |
| 20260504033157 | 65 | 188 | 0.0 | 0.0 | 0.00 | 0.00 | 0.00 | 64 | 1018.2 |
| 20260504033056 | 65 | 188 | 0.0 | 0.0 | 0.00 | 0.00 | 0.00 | 64 | 1018.2 |
| 20260504033000 | 65 | 188 | 0.0 | 0.0 | 0.00 | 0.00 | 0.00 | 64 | 1018.2 |
| 20260504032856 | 65 | 188 | 0.0 | 0.0 | 0.00 | 0.00 | 0.00 | 64 | 1018.2 |
| 20260504032758 | 65 | 188 | 0.0 | 0.0 | 0.00 | 0.00 | 0.00 | 64 | 1018.2 |
| 20260504032658 | 65 | 188 | 0.0 | 0.0 | 0.00 | 0.00 | 0.00 | 63 | 1018.2 |
| 20260504032559 | 65 | 188 | 0.0 | 0.0 | 0.00 | 0.00 | 0.00 | 63 | 1018.2 |
| 20260504032456 | 65 | 188 | 0.0 | 0.0 | 0.00 | 0.00 | 0.00 | 63 | 1018.2 |
| 20260504032357 | 66 | 188 | 0.0 | 0.0 | 0.00 | 0.00 | 0.00 | 64 | 1018.1 |
| 20260504032258 | 66 | 188 | 0.0 | 0.0 | 0.00 | 0.00 | 0.00 | 63 | 1018.1 |
| 20260504032159 | 66 | 188 | 0.0 | 0.0 | 0.00 | 0.00 | 0.00 | 63 | 1018.1 |
| 20260504032058 | 66 | 188 | 0.0 | 0.0 | 0.00 | 0.00 | 0.00 | 64 | 1018.2 |
| 20260504031958 | 66 | 188 | 0.0 | 0.0 | 0.00 | 0.00 | 0.00 | 63 | 1018.2 |
| 20260504031857 | 66 | 188 | 0.0 | 0.0 | 0.00 | 0.00 | 0.00 | 63 | 1018.1 |
| 20260504031659 | 66 | 188 | 0.0 | 0.0 | 0.00 | 0.00 | 0.00 | 63 | 1018.2 |
| 20260504031556 | 66 | 188 | 0.0 | 0.0 | 0.00 | 0.00 | 0.00 | 63 | 1018.2 |
| 20260504031456 | 66 | 188 | 0.0 | 0.0 | 0.00 | 0.00 | 0.00 | 63 | 1018.2 |
| 20260504031157 | 66 | 188 | 0.0 | 1.0 | 0.00 | 0.00 | 0.00 | 63 | 1018.1 |
| 20260504030758 | 66 | 188 | 0.0 | 1.0 | 0.00 | 0.00 | 0.00 | 63 | 1018.2 |
| 20260504030658 | 66 | 188 | 0.0 | 1.0 | 0.00 | 0.00 | 0.00 | 62 | 1018.2 |
| 20260504030559 | 67 | 188 | 0.0 | 1.0 | 0.00 | 0.00 | 0.00 | 63 | 1018.1 |
| 20260504030458 | 67 | 188 | 0.0 | 1.0 | 0.00 | 0.00 | 0.00 | 62 | 1018.1 |
| 20260504030357 | 67 | 188 | 0.0 | 1.0 | 0.00 | 0.00 | 0.00 | 62 | 1018.1 |
| 20260504030258 | 67 | 188 | 0.0 | 0.0 | 0.00 | 0.00 | 0.00 | 62 | 1018.0 |
| 20260504030056 | 67 | 188 | 0.0 | 0.0 | 0.00 | 0.00 | 0.00 | 62 | 1018.0 |
| 20260504030000 | 67 | 188 | 0.0 | 1.0 | 0.00 | 0.00 | 0.00 | 62 | 1018.0 |
| 20260504025858 | 67 | 188 | 0.0 | 1.0 | 0.00 | 0.00 | 0.00 | 62 | 1018.0 |
| 20260504025759 | 67 | 188 | 0.0 | 1.0 | 0.00 | 0.00 | 0.00 | 62 | 1018.0 |
| 20260504025656 | 67 | 188 | 0.0 | 1.0 | 0.00 | 0.00 | 0.00 | 62 | 1017.9 |
| 20260504025557 | 67 | 188 | 0.0 | 1.0 | 0.00 | 0.00 | 0.00 | 62 | 1017.9 |
| 20260504025358 | 67 | 188 | 0.0 | 1.0 | 0.00 | 0.00 | 0.00 | 61 | 1017.9 |
| 20260504025257 | 67 | 188 | 0.0 | 1.0 | 0.00 | 0.00 | 0.00 | 61 | 1017.9 |
| 20260504025158 | 67 | 188 | 0.0 | 1.0 | 0.00 | 0.00 | 0.00 | 61 | 1018.0 |
| 20260504025058 | 67 | 188 | 0.0 | 1.0 | 0.00 | 0.00 | 0.00 | 61 | 1017.9 |
| 20260504024958 | 67 | 188 | 0.0 | 1.0 | 0.00 | 0.00 | 0.00 | 61 | 1017.9 |
| 20260504024658 | 67 | 188 | 0.0 | 1.0 | 0.00 | 0.00 | 0.00 | 61 | 1017.9 |
| 20260504024559 | 67 | 188 | 0.0 | 1.0 | 0.00 | 0.00 | 0.00 | 61 | 1018.0 |
| 20260504024457 | 67 | 188 | 0.0 | 1.0 | 0.00 | 0.00 | 0.00 | 61 | 1017.9 |
| 20260504024358 | 67 | 188 | 0.0 | 1.0 | 0.00 | 0.00 | 0.00 | 61 | 1017.9 |
| 20260504024257 | 67 | 188 | 0.0 | 1.0 | 0.00 | 0.00 | 0.00 | 61 | 1017.9 |
| 20260504024158 | 67 | 188 | 0.0 | 2.0 | 0.00 | 0.00 | 0.00 | 61 | 1017.9 |
| 20260504024058 | 68 | 188 | 1.0 | 2.0 | 0.00 | 0.00 | 0.00 | 60 | 1017.9 |
| 20260504023959 | 68 | 188 | 0.0 | 2.0 | 0.00 | 0.00 | 0.00 | 60 | 1017.9 |
| 20260504023858 | 68 | 188 | 0.0 | 2.0 | 0.00 | 0.00 | 0.00 | 60 | 1017.9 |
| 20260504023758 | 68 | 188 | 0.0 | 2.0 | 0.00 | 0.00 | 0.00 | 60 | 1017.9 |
| 20260504023657 | 68 | 188 | 0.0 | 2.0 | 0.00 | 0.00 | 0.00 | 60 | 1018.0 |
| 20260504023557 | 68 | 188 | 0.0 | 2.0 | 0.00 | 0.00 | 0.00 | 60 | 1018.0 |
| 20260504023456 | 68 | 188 | 0.0 | 2.0 | 0.00 | 0.00 | 0.00 | 60 | 1018.0 |
| 20260504023256 | 68 | 188 | 0.0 | 1.0 | 0.00 | 0.00 | 0.00 | 59 | 1018.0 |
| 20260504023159 | 68 | 188 | 0.0 | 1.0 | 0.00 | 0.00 | 0.00 | 59 | 1018.0 |
| 20260504023058 | 68 | 188 | 0.0 | 1.0 | 0.00 | 0.00 | 0.00 | 59 | 1018.0 |
| 20260504023000 | 68 | 188 | 0.0 | 1.0 | 0.00 | 0.00 | 0.00 | 59 | 1017.9 |
| 20260504022858 | 68 | 188 | 0.0 | 1.0 | 0.00 | 0.00 | 0.00 | 59 | 1017.9 |
| 20260504022758 | 68 | 188 | 0.0 | 1.0 | 0.00 | 0.00 | 0.00 | 59 | 1017.9 |
| 20260504022656 | 68 | 188 | 0.0 | 1.0 | 0.00 | 0.00 | 0.00 | 59 | 1017.9 |
| 20260504022559 | 68 | 188 | 0.0 | 1.0 | 0.00 | 0.00 | 0.00 | 59 | 1017.9 |
| 20260504022458 | 68 | 188 | 0.0 | 1.0 | 0.00 | 0.00 | 0.00 | 59 | 1017.9 |
| 20260504022359 | 68 | 188 | 0.0 | 1.0 | 0.00 | 0.00 | 0.00 | 59 | 1017.9 |
| 20260504022258 | 68 | 188 | 0.0 | 1.0 | 0.00 | 0.00 | 0.00 | 59 | 1017.9 |
| 20260504022158 | 68 | 188 | 0.0 | 1.0 | 0.00 | 0.00 | 0.00 | 59 | 1017.9 |